Wetbulb
45.31 40.47 36.21 38.75 41.24 39.90 39.39 37.72 35.77 39.19 43.44 42.00 41.45 41.35 43.74 45.04 42.66 42.80 43.81 44.78 45.35 46.28 48.22 47.94 47.94 47.17 48.09 47.97 48.21 49.01 50.80 51.66 53.44 57.46 64.33 63.62 64.66 63.94 63.76 66.04 66.77 65.84 65.93 64.46
41.45 36.67 40.42 42.51 42.29 40.90 38.57 36.04 36.10 38.75 43.07 42.31 41.00 39.74 43.37 43.55 42.97 43.88 44.44 44.39 44.63 44.92 45.66 47.38 48.10 47.39 48.13 48.99 49.66 49.85 49.20 49.25 50.53 52.33 53.06 61.71 64.74 65.06 66.18 65.89 65.49 65.76 65.57 64.67
37.76 39.43 43.29 42.18 40.17 38.75 37.26 33.46 34.06 35.23 38.86 38.93 37.73 35.30 38.09 41.92 43.66 44.58 43.58 42.45 42.88 42.76 45.60 46.38 48.02 49.02 49.88 49.90 49.93 50.92 50.22 50.20 49.92 50.17 51.20 52.15 56.19 62.57 62.80 62.65 63.07 64.46 64.87 64.61
39.12 42.47 41.31 40.29 38.78 39.11 34.12 39.40 38.94 37.92 34.41 29.52 38.12 27.01 33.45 39.00 39.35 41.47 40.52 39.75 40.09 44.71 46.32 47.99 49.04 49.33 50.20 50.24 51.12 51.58 52.00 51.01 51.09 50.19 48.94 48.43 48.80 49.40 56.15 61.64 63.32 63.75 63.80 63.43
37.67 38.75 39.54 39.28 39.62 41.67 36.81 40.86 39.16 37.14 34.04 32.41 33.43 27.82 31.43 36.22 35.43 37.80 40.05 39.60 40.37 43.58 45.91 47.46 48.92 50.23 51.18 51.14 50.89 50.87 51.45 51.40 50.98 50.68 49.78 47.64 47.14 48.26 49.78 50.74 53.51 58.63 62.79 63.62
39.41 43.46 42.49 39.73 42.16 42.95 43.28 39.37 36.55 35.53 33.46 25.49 32.78 29.97 28.79 31.38 37.46 37.18 38.85 42.20 44.15 45.44 46.28 47.82 49.06 49.71 49.17 49.36 49.44 49.57 49.69 50.39 50.74 50.04 49.80 48.95 47.50 47.38 47.66 48.14 48.66 51.05 55.83 58.70
36.66 36.68 40.19 42.98 39.50 41.40 41.56 33.10 24.33 23.70 21.35 23.08 31.79 31.16 32.50 36.26 37.39 39.06 40.08 41.89 44.02 45.77 45.91 46.38 47.00 47.45 47.82 47.56 47.75 49.12 48.42 48.64 49.33 49.51 49.59 49.32 48.78 48.19 48.01 48.18 48.43 49.00 51.37 53.95
28.48 30.39 37.25 40.05 37.82 38.07 38.95 33.28 24.86 19.11 19.97 23.41 30.43 28.13 32.46 37.35 39.92 42.34 43.26 43.36 44.40 45.26 45.95 46.44 46.91 46.33 46.48 46.70 46.29 46.51 46.56 47.11 47.93 48.27 48.87 49.51 49.87 50.08 50.17 50.03 50.12 50.17 50.38 51.11
29.91 29.02 38.16 39.52 41.69 40.65 37.55 31.42 35.34 26.66 24.72 20.06 25.16 30.06 36.08 38.28 38.86 40.94 41.64 42.69 42.81 45.04 45.93 46.06 46.05 45.92 46.12 45.54 45.69 45.46 45.50 45.69 45.89 46.07 46.73 47.57 48.14 48.41 48.58 48.78 49.19 49.40 49.65 51.81
35.22 28.75 36.86 39.11 41.53 41.33 38.61 39.97 29.97 24.44 18.96 19.27 21.95 24.72 28.34 33.66 35.92 39.13 40.46 40.35 42.19 45.08 45.28 45.17 44.92 44.81 45.94 45.46 45.18 44.58 44.67 43.93 43.84 44.25 45.26 45.71 45.40 45.12 44.47 44.26 43.65 44.90 46.80 48.59
39.73 33.72 33.94 38.37 35.81 35.92 35.45 34.07 32.97 31.30 26.23 20.76 18.58 23.23 32.86 37.25 38.43 37.83 40.15 41.53 42.54 43.74 43.94 43.21 43.39 44.05 45.40 44.66 43.92 43.00 42.92 42.67 42.49 43.05 42.98 42.47 42.48 42.22 41.69 40.94 40.37 40.21 41.82 43.20
39.18 35.82 30.19 34.05 39.36 41.06 38.95 36.26 34.57 26.15 24.73 22.80 21.37 24.29 35.58 37.26 38.53 39.58 41.00 43.28 43.95 44.87 42.92 42.42 42.65 43.10 43.00 42.18 41.74 41.34 41.59 41.59 41.69 41.93 41.11 40.53 40.43 39.75 38.80 38.43 38.70 39.08 38.33 39.16
38.14 31.45 24.94 26.70 32.39 35.94 34.49 36.49 37.89 33.68 30.14 22.60 19.39 23.82 35.14 36.24 38.61 40.60 40.98 42.35 44.66 43.68 42.16 41.54 41.82 41.81 41.28 40.32 40.48 40.68 40.61 40.39 40.88 40.43 39.43 38.92 38.55 38.04 37.26 37.29 37.99 38.59 38.34 38.60
41.38 33.35 29.40 23.10 27.35 32.01 29.01 34.38 34.10 32.08 26.64 27.88 25.72 27.11 32.23 35.10 37.29 38.81 40.77 42.54 43.97 42.50 42.28 40.92 41.31 41.14 40.16 40.33 40.56 40.27 39.65 39.88 40.07 39.24 38.26 37.43 37.28 37.45 37.42 37.90 38.09 38.67 39.21 39.49
37.17 26.95 27.91 32.06 34.77 31.23 31.67 32.72 32.64 27.09 30.36 24.23 29.07 30.75 34.73 36.01 37.37 39.47 41.58 43.81 43.18 41.83 40.98 40.29 39.90 39.34 39.08 38.98 39.26 39.40 39.23 39.55 39.38 38.40 37.49 36.78 37.16 39.07 39.75 39.74 38.35 38.07 38.18 40.06
36.36 26.26 28.00 26.31 33.16 32.26 29.10 32.67 33.66 32.41 32.30 31.41 31.30 31.52 36.85 38.36 40.99 41.52 42.15 44.06 43.67 42.08 41.01 40.11 40.00 39.35 38.30 37.72 38.67 39.20 38.83 39.04 38.89 37.45 36.59 36.87 37.41 37.88 37.97 37.85 37.50 37.21 36.95 37.02
33.69 29.04 25.56 22.33 29.80 29.58 25.39 30.54 31.57 32.63 33.36 33.58 28.38 33.41 37.79 38.18 40.83 41.19 42.06 44.01 42.99 40.83 39.85 38.96 38.37 37.39 37.21 37.91 38.27 37.27 37.68 38.21 38.06 38.45 37.72 36.97 37.38 37.06 37.04 37.12 36.51 35.79 35.66 35.91
32.50 30.32 27.99 21.75 25.64 16.46 29.06 35.82 35.81 34.46 35.21 35.40 36.23 37.17 38.52 39.98 41.19 42.46 44.33 43.33 40.97 40.30 39.63 38.66 37.36 36.96 37.36 37.49 37.47 37.35 37.64 39.02 38.17 37.10 36.51 37.16 36.81 36.28 36.36 35.96 35.01 34.43 34.18 33.71
35.58 32.21 26.70 22.98 19.41 25.84 31.59 33.92 33.59 32.20 32.24 36.88 35.86 37.89 39.49 42.26 41.41 40.42 42.79 41.85 39.94 39.14 38.51 37.57 36.65 36.24 36.30 36.63 36.75 36.28 36.07 37.54 36.91 35.63 35.64 36.44 36.24 35.92 35.61 34.38 33.57 33.04 32.89 32.33
35.75 34.47 28.14 24.78 21.55 22.36 33.39 36.16 38.77 38.25 30.09 37.85 37.86 37.72 38.35 40.95 35.97 39.00 39.23 39.33 38.56 38.82 38.43 36.62 36.25 36.54 35.95 35.78 36.07 35.16 36.07 36.68 36.16 35.70 35.67 36.46 36.71 35.99 34.89 34.06 33.38 33.80 33.17 31.21
30.03 30.36 26.66 28.35 23.78 28.26 38.01 38.68 40.16 30.96 31.91 39.23 39.35 39.77 40.64 38.79 40.17 42.39 40.55 39.23 38.91 38.55 38.23 37.51 36.48 35.21 34.83 35.58 35.78 35.34 35.86 35.69 36.78 36.75 36.78 36.71 36.47 35.79 35.11 34.08 33.95 26.93 21.98 21.24
31.06 29.93 29.65 30.64 27.66 21.94 39.56 37.68 36.56 38.36 40.48 41.51 40.44 41.03 41.02 40.91 42.12 41.63 40.49 38.54 38.24 37.43 38.16 37.50 35.16 34.87 35.15 35.42 35.39 35.63 35.21 37.04 37.23 36.88 36.03 35.26 35.65 35.70 34.75 32.25 29.30 28.37 26.74 24.85
28.09 31.22 31.11 30.40 30.04 36.69 38.60 38.64 40.39 41.70 41.42 42.44 41.84 42.31 41.99 41.17 41.32 42.26 41.01 38.59 37.74 37.49 37.47 38.21 35.73 34.91 35.08 35.92 37.44 35.80 36.06 37.28 36.84 36.19 35.71 35.14 34.28 33.19 32.61 28.64 27.16 25.64 24.74 23.11
33.02 36.34 32.41 33.06 35.42 36.52 40.11 40.37 41.53 41.49 40.20 41.02 41.71 42.18 42.57 41.63 41.81 41.19 41.86 39.39 37.81 37.47 37.04 37.42 36.82 36.08 34.56 36.78 37.45 36.99 37.14 37.33 36.56 35.65 33.21 31.78 28.77 26.97 26.73 26.95 26.31 24.61 23.05 21.96
33.83 35.33 33.53 32.89 36.10 37.33 38.63 40.53 41.48 41.10 41.05 40.34 39.99 39.63 40.58 40.62 40.55 40.86 41.09 40.89 38.90 37.95 37.59 37.41 36.67 36.39 35.85 36.62 37.15 37.23 37.39 37.21 35.75 32.60 28.52 25.94 26.04 25.11 25.02 27.10 25.31 24.56 25.36 25.43
35.06 34.50 32.55 31.56 37.33 37.77 38.32 40.03 40.81 40.16 39.49 39.17 38.41 37.80 38.42 38.82 39.12 39.93 40.91 42.15 40.33 37.73 37.28 36.57 38.11 36.67 36.64 36.85 37.36 37.43 37.67 36.97 32.49 27.50 25.17 24.83 24.24 23.98 24.71 25.30 26.29 32.16 31.61 32.04
MSLP
1013.73 1013.93 1013.38 1012.41 1014.03 1014.12 1014.83 1015.01 1014.96 1014.62 1014.07 1014.38 1014.40 1014.39 1014.32 1014.14 1013.98 1014.20 1014.41 1014.40 1014.28 1014.04 1013.54 1013.71 1013.92 1014.11 1014.21 1014.52 1014.69 1014.80 1014.76 1014.95 1015.14 1015.35 1015.50 1015.70 1015.74 1015.68 1015.64 1015.38 1015.24 1015.59 1015.81 1016.14
1013.73 1013.08 1013.47 1013.90 1014.42 1014.48 1014.67 1014.85 1014.72 1014.42 1014.04 1014.21 1014.51 1014.45 1014.39 1014.33 1014.15 1014.03 1014.18 1014.16 1014.17 1014.19 1014.18 1014.33 1014.36 1014.52 1014.90 1015.15 1015.18 1015.21 1015.24 1015.12 1015.04 1015.05 1015.31 1015.32 1015.28 1015.25 1015.18 1015.00 1015.11 1015.17 1015.39 1015.83
1012.92 1013.24 1013.67 1013.98 1014.41 1014.45 1014.39 1014.41 1014.60 1014.75 1014.55 1014.80 1014.88 1015.11 1014.79 1014.24 1013.93 1013.79 1013.94 1014.14 1014.29 1014.41 1014.68 1014.94 1014.98 1015.17 1015.23 1015.41 1015.51 1015.60 1015.43 1015.24 1015.16 1015.19 1015.12 1015.14 1015.17 1015.29 1015.33 1015.32 1015.34 1015.21 1015.15 1015.17
1013.47 1013.54 1013.77 1014.24 1014.50 1014.49 1014.52 1014.12 1014.25 1014.86 1015.33 1015.65 1015.51 1015.41 1014.74 1014.16 1013.96 1014.03 1014.20 1014.39 1014.55 1014.88 1014.99 1015.16 1015.30 1015.50 1015.67 1015.76 1015.76 1015.76 1015.65 1015.48 1015.28 1015.20 1015.28 1015.48 1015.61 1015.74 1015.47 1015.38 1015.19 1014.98 1014.66 1014.68
1014.44 1014.04 1014.14 1014.67 1014.95 1014.75 1014.53 1014.17 1014.84 1015.42 1015.98 1016.13 1016.40 1016.52 1014.52 1014.17 1014.29 1014.15 1014.26 1014.50 1014.82 1015.07 1015.07 1015.33 1015.40 1015.58 1015.87 1016.03 1016.13 1016.07 1015.85 1015.70 1015.53 1015.31 1015.24 1015.47 1015.58 1015.74 1015.54 1015.35 1015.22 1014.96 1014.69 1014.33
1015.04 1014.94 1015.27 1015.53 1015.49 1015.43 1015.34 1015.22 1015.85 1016.44 1017.01 1017.31 1016.61 1016.68 1015.00 1014.30 1013.45 1014.01 1014.51 1014.80 1015.00 1015.31 1015.47 1015.56 1015.68 1015.97 1016.32 1016.37 1016.43 1016.35 1016.21 1015.98 1015.80 1015.67 1015.51 1015.53 1015.56 1015.60 1015.67 1015.51 1015.40 1015.08 1014.72 1014.52
1015.98 1016.49 1016.49 1016.23 1015.95 1016.07 1015.95 1016.12 1017.48 1018.27 1018.35 1017.61 1016.76 1016.72 1014.37 1013.41 1013.19 1013.48 1014.28 1014.74 1015.06 1015.33 1015.62 1015.88 1016.09 1016.29 1016.53 1016.74 1016.78 1016.69 1016.55 1016.42 1016.21 1016.02 1015.89 1015.78 1015.73 1015.67 1015.82 1015.80 1015.71 1015.50 1015.21 1015.00
1015.96 1017.10 1016.82 1016.85 1016.80 1016.64 1016.57 1016.22 1017.14 1017.97 1018.38 1017.77 1016.94 1015.86 1013.82 1012.90 1012.88 1013.27 1013.79 1014.44 1015.00 1015.42 1015.61 1015.93 1016.17 1016.48 1016.70 1016.90 1016.93 1016.88 1016.86 1016.80 1016.60 1016.45 1016.35 1016.18 1016.05 1016.06 1016.10 1016.07 1015.98 1016.03 1015.96 1015.75
1015.83 1017.09 1017.46 1017.30 1017.23 1016.79 1016.76 1016.44 1016.55 1017.47 1017.85 1017.89 1016.63 1015.18 1014.17 1013.42 1013.47 1013.71 1014.12 1014.65 1015.07 1015.50 1015.69 1015.96 1016.24 1016.51 1016.79 1017.04 1017.13 1017.19 1017.20 1017.16 1017.02 1016.87 1016.72 1016.73 1016.64 1016.52 1016.56 1016.51 1016.42 1016.42 1016.26 1016.04
1015.07 1016.68 1017.42 1017.43 1017.30 1016.81 1016.46 1016.20 1016.85 1017.76 1018.27 1017.88 1016.80 1015.21 1013.92 1014.00 1013.93 1013.96 1014.28 1014.74 1015.19 1015.49 1015.80 1016.09 1016.38 1016.67 1016.91 1017.08 1017.28 1017.41 1017.50 1017.51 1017.43 1017.30 1017.29 1017.39 1017.25 1017.21 1017.21 1017.04 1017.06 1016.92 1016.67 1016.37
1013.65 1014.96 1017.03 1017.16 1016.99 1016.32 1016.24 1016.37 1016.71 1017.22 1017.82 1017.59 1016.96 1014.89 1013.17 1013.00 1013.19 1013.72 1014.17 1014.63 1015.06 1015.51 1015.96 1016.30 1016.55 1016.78 1016.97 1017.23 1017.48 1017.73 1017.83 1017.88 1017.90 1017.93 1017.94 1017.97 1017.96 1017.91 1017.87 1017.75 1017.68 1017.49 1017.17 1016.90
1013.23 1014.51 1016.04 1016.58 1016.33 1016.28 1016.08 1016.26 1016.40 1016.92 1017.58 1017.62 1016.91 1014.72 1013.16 1012.88 1013.21 1013.51 1014.09 1014.51 1014.91 1015.34 1015.92 1016.32 1016.55 1016.90 1017.32 1017.64 1017.84 1018.06 1018.24 1018.34 1018.38 1018.41 1018.48 1018.62 1018.64 1018.67 1018.55 1018.51 1018.31 1017.99 1017.72 1017.48
1013.09 1014.53 1016.10 1017.06 1017.24 1016.76 1016.47 1016.25 1016.12 1016.54 1017.03 1017.03 1016.61 1015.00 1013.53 1013.20 1013.44 1013.59 1013.96 1014.36 1014.90 1015.41 1015.91 1016.39 1016.73 1017.12 1017.54 1017.94 1018.14 1018.38 1018.62 1018.77 1018.76 1018.84 1018.99 1019.23 1019.33 1019.34 1019.25 1019.21 1018.79 1018.55 1018.26 1017.94
1012.94 1014.25 1015.05 1015.65 1015.32 1015.36 1015.78 1015.83 1015.91 1016.35 1017.00 1016.32 1015.72 1014.93 1014.28 1013.71 1013.55 1013.67 1013.94 1014.25 1014.82 1015.40 1015.88 1016.44 1016.93 1017.35 1017.76 1018.08 1018.32 1018.69 1018.99 1019.04 1019.08 1019.21 1019.51 1019.83 1019.89 1019.77 1019.72 1019.45 1019.17 1018.94 1018.87 1018.38
1013.45 1014.74 1015.42 1015.65 1015.51 1015.46 1015.32 1015.33 1015.56 1015.87 1015.62 1015.70 1015.07 1014.32 1013.57 1013.27 1013.15 1013.28 1013.64 1014.26 1014.91 1015.47 1015.99 1016.42 1017.05 1017.60 1018.00 1018.32 1018.64 1018.93 1019.16 1019.24 1019.37 1019.69 1019.94 1020.11 1020.04 1019.85 1019.81 1019.67 1019.76 1019.52 1019.43 1019.40
1014.16 1015.28 1015.81 1016.18 1015.87 1015.62 1015.41 1015.00 1014.96 1015.11 1015.07 1014.96 1014.72 1013.93 1012.79 1012.72 1012.87 1013.24 1013.78 1014.19 1014.79 1015.36 1016.00 1016.57 1017.12 1017.63 1018.19 1018.55 1018.91 1019.21 1019.48 1019.62 1019.76 1020.03 1020.17 1020.22 1020.06 1020.09 1020.22 1020.21 1020.27 1020.38 1020.45 1020.21
1014.44 1015.40 1016.35 1016.69 1016.08 1015.59 1014.93 1013.73 1013.94 1014.03 1013.92 1014.03 1014.01 1013.26 1012.63 1012.88 1012.95 1013.19 1013.71 1014.07 1014.76 1015.41 1016.19 1016.68 1017.23 1017.73 1018.27 1018.72 1019.10 1019.44 1019.71 1019.71 1019.85 1019.98 1020.19 1020.25 1020.58 1020.64 1020.73 1020.82 1021.03 1021.14 1021.06 1020.93
1014.36 1015.39 1016.10 1016.64 1016.43 1015.51 1013.29 1012.50 1012.47 1012.83 1013.10 1013.20 1013.03 1012.64 1012.53 1012.67 1012.93 1013.20 1013.54 1014.14 1015.00 1015.65 1016.20 1016.87 1017.43 1017.92 1018.39 1018.78 1019.16 1019.45 1019.68 1019.75 1019.98 1020.16 1020.31 1020.46 1020.81 1021.06 1021.33 1021.43 1021.64 1021.81 1021.65 1021.57
1014.08 1015.03 1015.94 1016.29 1016.24 1014.47 1013.15 1012.44 1012.17 1012.33 1012.41 1012.35 1012.53 1012.48 1012.38 1012.65 1013.03 1013.60 1013.86 1014.27 1015.05 1015.71 1016.27 1016.97 1017.56 1018.06 1018.50 1018.80 1019.17 1019.46 1019.73 1020.02 1020.19 1020.41 1020.50 1020.60 1021.08 1021.39 1021.91 1021.84 1022.20 1022.32 1022.15 1022.27
1014.09 1014.54 1015.60 1015.83 1015.52 1014.07 1012.43 1011.76 1011.48 1011.65 1011.87 1011.38 1011.73 1012.18 1012.40 1012.73 1013.57 1014.06 1014.51 1014.83 1015.51 1015.97 1016.54 1017.18 1017.75 1018.07 1018.39 1018.71 1019.20 1019.60 1019.83 1020.13 1020.33 1020.60 1020.72 1020.85 1021.20 1021.79 1022.17 1022.32 1022.67 1022.71 1022.56 1022.57
1014.26 1014.64 1014.93 1014.91 1014.63 1013.22 1011.86 1011.54 1011.46 1011.92 1012.08 1011.20 1011.44 1011.95 1012.51 1012.99 1013.43 1013.76 1014.44 1015.04 1015.53 1016.08 1016.61 1017.19 1017.61 1018.16 1018.43 1018.76 1019.09 1019.71 1020.14 1020.37 1020.51 1020.66 1020.74 1021.07 1021.61 1022.10 1022.42 1022.69 1022.78 1022.79 1022.90 1023.03
1013.53 1013.91 1014.07 1014.17 1014.01 1012.91 1011.65 1011.69 1011.79 1011.71 1011.55 1011.66 1011.89 1012.20 1012.53 1012.93 1013.46 1013.94 1014.50 1015.18 1015.78 1016.25 1016.73 1017.18 1017.79 1018.25 1018.60 1018.80 1019.02 1019.84 1020.40 1020.58 1020.63 1020.62 1021.03 1021.52 1021.91 1022.17 1022.54 1022.74 1022.80 1022.89 1023.06 1023.27
1012.82 1012.76 1012.85 1012.98 1012.61 1011.79 1011.39 1011.46 1011.44 1011.53 1011.82 1012.03 1012.12 1012.37 1012.67 1013.09 1013.44 1013.81 1014.40 1015.05 1015.66 1016.07 1016.61 1017.04 1017.56 1018.15 1018.61 1018.92 1019.24 1019.86 1020.24 1020.48 1020.66 1020.98 1021.36 1021.66 1021.92 1022.11 1022.31 1022.54 1022.66 1022.84 1022.98 1023.20
1012.30 1012.02 1012.33 1012.40 1011.87 1011.65 1011.57 1011.64 1011.68 1011.89 1012.18 1012.37 1012.53 1012.67 1012.83 1013.15 1013.43 1013.83 1014.21 1014.78 1015.41 1015.92 1016.43 1016.89 1017.42 1018.00 1018.49 1018.73 1019.09 1019.59 1020.14 1020.37 1020.63 1021.07 1021.41 1021.65 1021.93 1022.13 1022.21 1022.19 1022.27 1022.60 1022.76 1022.91
1012.22 1012.03 1012.13 1012.15 1011.82 1011.77 1011.80 1011.64 1011.91 1012.32 1012.56 1012.84 1013.07 1013.15 1013.26 1013.41 1013.63 1013.83 1014.06 1014.47 1015.00 1015.52 1016.06 1016.54 1016.95 1017.34 1017.85 1018.42 1018.84 1019.29 1019.85 1020.15 1020.50 1020.79 1021.09 1021.49 1021.80 1022.07 1022.25 1022.30 1022.30 1022.49 1022.53 1022.54
1011.92 1011.73 1012.02 1012.08 1011.79 1011.60 1011.75 1011.88 1012.24 1012.64 1012.97 1013.20 1013.38 1013.55 1013.64 1013.67 1013.83 1013.92 1014.05 1014.12 1014.43 1015.01 1015.49 1016.02 1016.41 1016.83 1017.51 1018.00 1018.44 1018.95 1019.38 1019.73 1020.29 1020.68 1020.89 1021.19 1021.64 1021.93 1022.06 1022.23 1022.45 1022.42 1022.42 1022.37
Wind_Speed
13 9 21 26 11 6 7 3 6 7 7 7 11 6 12 7 4 7 7 7 6 6 4 5 7 6 6 8 8 7 6 4 2 1 3 2 5 4 4 5 7 5 3 5
8 16 10 9 8 6 9 9 9 2 6 13 11 11 10 10 7 8 9 7 6 4 5 5 6 7 8 6 6 7 6 6 5 2 0 1 3 4 7 6 5 5 5 5
12 8 12 12 10 11 6 6 5 4 3 4 5 5 7 8 6 6 4 4 2 1 7 5 7 7 7 8 7 6 6 5 3 3 3 2 2 1 1 2 3 6 7 7
6 3 11 12 13 7 6 6 3 13 6 5 5 5 7 12 7 7 6 4 5 7 6 6 6 6 6 4 5 6 6 6 3 4 3 2 1 1 2 2 3 5 7 7
2 5 10 9 3 3 5 1 7 5 6 5 1 1 7 8 6 7 6 5 6 6 7 7 6 6 5 5 4 5 6 5 5 4 2 1 2 2 2 3 4 4 5 7
5 5 5 3 3 3 5 9 8 5 3 1 6 6 5 7 14 6 5 8 8 7 7 6 6 7 4 5 6 6 7 5 6 6 5 4 3 4 3 4 4 4 3 3
4 4 4 2 4 7 2 5 3 3 2 6 3 7 9 7 7 9 10 8 7 7 7 6 6 5 4 5 5 5 6 6 6 7 6 6 5 4 4 5 4 5 4 3
5 5 2 2 4 3 9 4 6 7 5 4 2 8 6 7 8 12 11 9 8 7 6 7 6 5 4 5 5 5 6 6 7 7 7 6 7 4 3 4 4 4 4 3
5 3 1 2 2 2 6 4 4 4 2 4 5 3 4 5 8 9 10 8 8 7 7 7 6 5 5 4 4 4 5 6 7 7 6 7 7 8 7 7 6 4 4 5
6 6 3 5 1 2 4 0 1 3 3 4 5 4 4 7 8 7 8 8 7 7 7 5 5 5 4 4 4 6 6 6 6 7 6 6 7 7 6 6 7 7 7 7
3 4 4 6 5 6 2 1 2 2 5 4 4 7 3 16 13 10 8 8 8 7 7 6 5 3 5 5 6 6 6 6 6 6 6 7 7 7 7 7 6 7 6 7
5 4 3 1 4 7 2 4 4 5 4 2 3 6 4 10 9 8 8 8 7 8 7 6 5 4 5 6 6 6 6 6 5 5 6 6 6 6 7 6 6 6 6 6
3 2 4 3 2 4 4 5 5 3 3 4 5 6 2 7 8 7 8 7 7 7 7 5 4 4 6 6 6 6 5 5 5 6 6 6 6 6 6 6 5 6 5 5
2 2 4 7 5 5 5 12 6 5 3 2 5 3 4 7 8 6 7 7 8 7 7 5 4 4 5 5 6 5 5 5 4 6 6 5 5 5 5 5 6 7 6 7
4 3 3 2 4 3 2 4 8 5 4 6 2 5 10 9 9 7 7 7 7 7 6 6 5 4 4 6 5 6 5 4 4 5 5 5 4 6 7 7 7 8 9 7
2 2 3 3 4 4 3 6 7 6 5 3 3 5 6 5 5 6 7 8 7 7 6 6 6 6 6 5 5 5 5 5 5 5 5 5 6 7 7 7 8 8 8 8
3 5 3 3 1 3 6 11 10 6 5 9 9 8 5 5 6 6 7 7 7 6 6 6 6 6 6 5 6 6 5 5 5 5 7 7 6 6 7 7 7 6 6 7
4 4 3 2 3 2 7 2 8 14 10 8 4 6 7 6 5 5 5 8 7 7 6 6 6 6 5 5 6 6 5 5 5 6 7 7 6 6 5 5 5 6 6 7
3 4 2 4 3 6 1 4 4 8 8 9 8 6 5 6 4 1 3 4 6 6 5 5 5 5 5 6 6 6 6 5 6 6 6 6 6 6 4 5 5 4 7 6
3 2 5 2 2 4 2 2 1 4 4 6 11 8 4 5 2 3 5 5 6 6 6 7 6 5 6 5 6 6 6 5 6 6 6 6 6 5 4 5 4 3 5 4
2 1 4 4 2 6 3 3 2 2 3 2 7 5 6 4 3 5 6 5 5 5 6 7 6 6 6 6 7 7 5 4 5 6 6 6 5 5 5 4 2 1 2 2
6 5 4 3 3 7 4 3 3 3 2 5 5 4 6 6 5 5 6 7 7 7 6 6 6 6 5 6 7 7 5 4 5 6 6 6 5 5 5 5 3 2 2 3
3 6 4 7 6 4 3 4 1 4 4 2 4 3 5 5 4 6 6 7 7 7 6 5 7 7 5 5 7 7 5 5 6 6 7 6 5 5 5 5 4 2 3 3
3 4 2 2 2 6 6 3 4 3 3 3 2 3 4 3 3 3 5 6 6 6 6 5 9 8 7 6 7 6 7 7 7 7 6 5 5 5 4 3 2 3 3 2
5 4 4 3 5 1 4 5 7 6 6 5 3 2 2 2 2 2 3 6 7 7 7 7 8 8 8 8 8 8 8 7 6 5 6 5 4 5 4 3 3 3 2 3
4 6 5 5 3 3 3 5 6 6 4 4 3 1 2 1 3 3 4 4 6 8 7 7 8 8 9 10 9 9 9 8 6 5 5 5 4 4 4 4 2 4 4 4
Wind_Direction
181 165 192 196 177 109 130 114 151 204 200 170 226 217 228 257 179 193 227 236 262 257 259 51 81 85 78 46 33 8 1 18 139 176 204 184 214 221 254 235 236 229 229 253
149 204 188 148 159 218 167 171 216 241 203 186 201 221 208 233 218 206 212 233 263 333 85 73 73 64 63 67 40 25 16 7 12 22 63 214 192 221 226 225 238 241 237 230
157 159 156 164 177 207 222 174 198 159 83 31 119 273 232 232 200 182 157 178 173 189 124 102 78 77 58 44 29 17 1 356 348 359 338 20 14 50 114 222 229 230 226 231
100 119 164 171 192 184 221 205 209 148 112 188 171 257 240 211 188 190 199 205 206 140 120 110 100 87 83 54 24 5 2 347 349 21 36 22 175 250 264 254 257 253 231 232
146 125 138 167 163 54 227 157 134 128 128 106 224 95 259 162 207 204 208 196 172 166 128 114 97 105 88 59 27 352 345 353 340 348 32 34 311 224 267 295 319 300 268 235
56 7 50 151 72 45 310 81 52 55 83 46 217 167 259 196 204 160 148 150 145 127 121 112 89 96 88 49 34 14 9 355 3 8 355 358 319 306 322 323 325 318 316 302
91 25 6 343 92 341 12 100 51 19 13 216 298 197 254 221 187 161 160 160 154 141 127 121 110 93 78 67 41 16 18 9 10 22 19 11 12 356 359 4 357 0 351 2
131 142 10 37 149 207 201 168 154 178 194 223 321 217 253 242 153 142 151 156 154 143 147 147 146 128 96 86 60 34 27 32 28 26 22 28 36 41 42 37 34 32 25 7
129 101 63 249 115 218 191 196 175 121 35 78 213 258 349 47 106 125 137 144 159 158 159 153 133 127 108 101 72 59 48 41 31 23 20 31 32 36 30 28 29 23 10 3
162 117 198 153 207 269 249 297 95 2 148 233 267 226 210 179 173 163 159 166 179 175 154 140 128 131 121 125 92 66 64 59 35 27 31 38 36 37 31 35 28 16 5 7
151 111 145 147 202 183 106 146 200 137 151 186 175 254 220 186 177 165 180 173 178 165 151 139 132 129 122 102 85 72 60 50 37 37 38 39 32 30 30 32 20 12 11 14
163 106 113 115 203 180 79 202 183 137 239 230 154 274 314 172 158 142 156 163 157 148 152 143 137 126 120 105 86 77 62 57 51 54 54 43 36 29 31 21 13 9 22 19
160 132 102 63 26 211 185 245 206 114 96 218 134 265 34 112 128 149 153 174 158 147 139 128 110 129 130 113 96 85 69 57 65 64 59 46 38 34 27 11 11 11 16 38
119 106 162 181 192 141 183 185 172 152 134 236 210 175 140 150 155 179 187 170 159 156 152 142 120 128 141 132 115 106 81 64 74 76 68 62 47 44 29 20 17 31 16 42
89 124 96 49 97 81 176 185 170 164 181 151 264 192 190 186 185 190 176 152 152 161 158 157 153 147 150 120 116 108 96 72 77 84 78 77 64 45 38 38 33 35 27 31
57 160 91 340 161 150 215 242 201 198 212 243 264 281 184 214 135 151 164 159 160 166 166 162 162 151 136 134 123 112 103 91 93 90 83 67 63 56 47 49 47 48 45 44
118 130 95 260 325 353 298 220 200 197 189 189 207 219 152 176 174 171 166 167 165 159 169 169 170 151 145 144 136 127 120 108 88 96 91 75 74 72 61 60 63 58 55 54
127 120 117 182 38 338 249 124 198 199 195 198 199 216 193 163 159 154 165 160 159 157 158 161 151 138 137 128 120 114 105 95 92 84 90 95 92 81 71 73 63 63 69 59
115 128 130 135 193 266 224 232 164 166 235 202 196 200 163 141 114 115 115 121 141 140 131 141 137 141 131 129 128 115 106 109 105 105 104 99 106 96 93 83 77 77 85 76
48 96 122 133 162 240 240 211 192 115 258 219 169 187 158 138 153 231 151 127 126 130 140 143 147 138 130 134 133 121 114 121 125 126 116 106 106 108 103 97 106 94 101 101
122 339 173 229 236 284 234 169 91 163 252 51 145 160 156 145 192 152 144 131 141 143 131 136 138 147 157 136 122 112 111 132 130 123 115 105 100 120 121 131 146 123 72 80
164 180 183 187 204 267 165 106 204 191 13 104 96 119 109 127 149 154 162 154 149 146 152 148 139 136 130 128 116 119 158 151 137 122 120 130 143 144 151 160 180 169 135 118
178 183 196 171 214 220 187 172 158 150 138 114 118 120 131 144 172 176 179 173 177 171 172 156 145 134 137 143 137 157 163 158 143 145 157 168 178 170 179 177 188 195 193 175
258 168 183 70 277 196 161 159 146 122 125 115 96 137 149 165 171 191 179 175 178 178 179 157 152 157 159 157 154 160 170 174 170 174 174 182 176 182 187 148 123 130 121 142
209 124 184 252 277 180 226 189 163 132 122 117 110 112 139 157 222 228 222 194 190 183 176 171 173 168 172 175 169 167 182 184 192 178 177 175 182 156 134 109 145 137 179 165
202 188 162 220 249 187 243 151 138 133 142 132 118 57 359 324 269 287 274 247 188 186 176 178 181 167 180 182 179 182 187 187 180 189 178 179 176 179 164 148 90 126 146 118